| time (UTC) | temp C | wind direction | speed KPH | gust KPH | rain 1hr cm | rain 24hr cm | rain mn cm | humidity % | barometer mb |
| 20260505081639 | 4 | 243 | 0.0 | 4.8 | 0.00 | 0.00 | 0.00 | 69 | 1007.0 |
| 20260505081539 | 4 | 235 | 0.0 | 1.6 | 0.00 | 0.00 | 0.00 | 70 | 1006.9 |
| 20260505081235 | 4 | 235 | 0.0 | 1.6 | 0.00 | 0.00 | 0.00 | 69 | 1006.8 |
| 20260505081159 | 4 | 235 | 0.0 | 1.6 | 0.00 | 0.00 | 0.00 | 70 | 1006.8 |
| 20260505081033 | 4 | 235 | 0.0 | 1.6 | 0.00 | 0.00 | 0.00 | 69 | 1006.9 |
| 20260505080832 | 4 | 235 | 0.0 | 1.6 | 0.00 | 0.00 | 0.00 | 69 | 1006.9 |
| 20260505080658 | 4 | 235 | 0.0 | 1.6 | 0.00 | 0.00 | 0.00 | 69 | 1006.8 |
| 20260505080634 | 4 | 235 | 0.0 | 1.6 | 0.00 | 0.00 | 0.00 | 69 | 1006.9 |
| 20260505080457 | 4 | 235 | 0.0 | 3.2 | 0.00 | 0.00 | 0.00 | 69 | 1006.9 |
| 20260505080448 | 4 | 235 | 0.0 | 1.6 | 0.00 | 0.00 | 0.00 | 70 | 1006.9 |
| 20260505080422 | 4 | 235 | 0.0 | 3.2 | 0.00 | 0.00 | 0.00 | 69 | 1006.9 |
| 20260505080010 | 4 | 235 | 0.0 | 3.2 | 0.00 | 0.00 | 0.00 | 69 | 1006.9 |
| 20260505075802 | 4 | 235 | 0.0 | 3.2 | 0.00 | 0.00 | 0.00 | 69 | 1006.9 |
| 20260505075635 | 4 | 235 | 0.0 | 3.2 | 0.00 | 0.00 | 0.00 | 69 | 1006.9 |
| 20260505075630 | 4 | 235 | 0.0 | 3.2 | 0.00 | 0.00 | 0.00 | 69 | 1006.9 |
| 20260505075335 | 4 | 235 | 0.0 | 1.6 | 0.00 | 0.00 | 0.00 | 69 | 1006.8 |
| 20260505075135 | 4 | 235 | 0.0 | 1.6 | 0.00 | 0.00 | 0.00 | 69 | 1006.6 |
| 20260505074910 | 4 | 235 | 0.0 | 1.6 | 0.00 | 0.00 | 0.00 | 69 | 1006.6 |
| 20260505074713 | 4 | 235 | 0.0 | 1.6 | 0.00 | 0.00 | 0.00 | 69 | 1006.6 |
| 20260505074631 | 4 | 235 | 0.0 | 1.6 | 0.00 | 0.00 | 0.00 | 69 | 1006.7 |
| 20260505074507 | 4 | 235 | 0.0 | 1.6 | 0.00 | 0.00 | 0.00 | 69 | 1006.6 |
| 20260505074307 | 4 | 235 | 0.0 | 1.6 | 0.00 | 0.00 | 0.00 | 69 | 1006.7 |
| 20260505074121 | 4 | 235 | 0.0 | 1.6 | 0.00 | 0.00 | 0.00 | 69 | 1006.8 |
| 20260505074100 | 4 | 235 | 0.0 | 1.6 | 0.00 | 0.00 | 0.00 | 69 | 1006.8 |
| 20260505073954 | 4 | 235 | 0.0 | 1.6 | 0.00 | 0.00 | 0.00 | 69 | 1006.8 |
| 20260505073703 | 4 | 235 | 0.0 | 1.6 | 0.00 | 0.00 | 0.00 | 69 | 1006.7 |
| 20260505073622 | 4 | 235 | 0.0 | 1.6 | 0.00 | 0.00 | 0.00 | 70 | 1006.7 |
| 20260505073504 | 4 | 235 | 0.0 | 1.6 | 0.00 | 0.00 | 0.00 | 70 | 1006.7 |
| 20260505073302 | 4 | 235 | 0.0 | 1.6 | 0.00 | 0.00 | 0.00 | 70 | 1006.7 |
| 20260505073106 | 4 | 235 | 0.0 | 3.2 | 0.00 | 0.00 | 0.00 | 69 | 1006.7 |
| 20260505073102 | 4 | 235 | 0.0 | 3.2 | 0.00 | 0.00 | 0.00 | 69 | 1006.7 |
| 20260505072833 | 4 | 235 | 0.0 | 3.2 | 0.00 | 0.00 | 0.00 | 69 | 1006.6 |
| 20260505072633 | 4 | 235 | 0.0 | 3.2 | 0.00 | 0.00 | 0.00 | 70 | 1006.7 |
| 20260505072600 | 4 | 235 | 0.0 | 3.2 | 0.00 | 0.00 | 0.00 | 70 | 1006.7 |
| 20260505072437 | 4 | 235 | 0.0 | 3.2 | 0.00 | 0.00 | 0.00 | 70 | 1006.7 |
| 20260505072428 | 4 | 235 | 0.0 | 3.2 | 0.00 | 0.00 | 0.00 | 70 | 1006.6 |
| 20260505072346 | 4 | 235 | 0.0 | 1.6 | 0.00 | 0.00 | 0.00 | 69 | 1006.7 |
| 20260505072008 | 4 | 235 | 0.0 | 0.0 | 0.00 | 0.00 | 0.00 | 69 | 1006.7 |
| 20260505071812 | 4 | 235 | 0.0 | 1.6 | 0.00 | 0.00 | 0.00 | 70 | 1006.7 |
| 20260505071610 | 4 | 235 | 0.0 | 1.6 | 0.00 | 0.00 | 0.00 | 69 | 1006.8 |
| 20260505071558 | 4 | 235 | 0.0 | 1.6 | 0.00 | 0.00 | 0.00 | 69 | 1006.8 |
| 20260505071406 | 4 | 235 | 0.0 | 1.6 | 0.00 | 0.00 | 0.00 | 70 | 1006.7 |
| 20260505071206 | 4 | 235 | 0.0 | 1.6 | 0.00 | 0.00 | 0.00 | 70 | 1006.8 |
| 20260505071058 | 4 | 235 | 0.0 | 1.6 | 0.00 | 0.00 | 0.00 | 70 | 1006.7 |
| 20260505071005 | 4 | 235 | 0.0 | 1.6 | 0.00 | 0.00 | 0.00 | 70 | 1006.8 |
| 20260505070805 | 4 | 235 | 0.0 | 1.6 | 0.00 | 0.00 | 0.00 | 70 | 1006.7 |
| 20260505070708 | 4 | 235 | 0.0 | 1.6 | 0.00 | 0.00 | 0.00 | 70 | 1006.8 |
| 20260505070601 | 4 | 235 | 0.0 | 1.6 | 0.00 | 0.00 | 0.00 | 70 | 1006.8 |
| 20260505070407 | 4 | 235 | 0.0 | 1.6 | 0.00 | 0.00 | 0.00 | 69 | 1006.8 |
| 20260505070206 | 4 | 235 | 0.0 | 0.0 | 0.00 | 0.00 | 0.00 | 69 | 1006.9 |
| 20260505070056 | 4 | 235 | 0.0 | 0.0 | 0.00 | 0.00 | 0.00 | 69 | 1006.9 |
| 20260505070003 | 4 | 235 | 0.0 | 1.6 | 0.00 | 0.00 | 0.00 | 69 | 1006.9 |
| 20260505065803 | -17 | 235 | 0.0 | 1.6 | 0.00 | 0.00 | 0.00 | 1006.9 | |
| 20260505065550 | -17 | 235 | 0.0 | 1.6 | 0.00 | 0.00 | 0.00 | 1006.9 | |
| 20260505065332 | 5 | 235 | 0.0 | 1.6 | 0.00 | 0.00 | 0.00 | 67 | 1006.9 |
| 20260505065132 | 5 | 235 | 0.0 | 1.6 | 0.00 | 0.00 | 0.00 | 67 | 1006.9 |
| 20260505065047 | 5 | 235 | 0.0 | 1.6 | 0.00 | 0.00 | 0.00 | 67 | 1006.9 |
| 20260505065031 | 5 | 235 | 0.0 | 1.6 | 0.00 | 0.00 | 0.00 | 67 | 1006.9 |
| 20260505064704 | 5 | 235 | 0.0 | 1.6 | 0.00 | 0.00 | 0.00 | 67 | 1006.9 |
| 20260505064546 | 5 | 235 | 0.0 | 1.6 | 0.00 | 0.00 | 0.00 | 67 | 1006.8 |
| 20260505064504 | 5 | 235 | 0.0 | 1.6 | 0.00 | 0.00 | 0.00 | 67 | 1006.9 |
| 20260505064303 | 5 | 235 | 0.0 | 1.6 | 0.00 | 0.00 | 0.00 | 67 | 1006.8 |
| 20260505064103 | 5 | 235 | 0.0 | 1.6 | 0.00 | 0.00 | 0.00 | 68 | 1006.7 |
| 20260505064045 | 5 | 235 | 0.0 | 1.6 | 0.00 | 0.00 | 0.00 | 68 | 1006.7 |
| 20260505063903 | 5 | 235 | 0.0 | 1.6 | 0.00 | 0.00 | 0.00 | 68 | 1006.7 |
| 20260505063704 | 5 | 235 | 0.0 | 1.6 | 0.00 | 0.00 | 0.00 | 68 | 1006.7 |
| 20260505063545 | 5 | 235 | 0.0 | 1.6 | 0.00 | 0.00 | 0.00 | 71 | 1006.7 |
| 20260505063507 | 5 | 235 | 0.0 | 1.6 | 0.00 | 0.00 | 0.00 | 71 | 1006.7 |
| 20260505063300 | 5 | 235 | 0.0 | 1.6 | 0.00 | 0.00 | 0.00 | 68 | 1006.7 |
| 20260505063157 | 5 | 235 | 0.0 | 1.6 | 0.00 | 0.00 | 0.00 | 68 | 1006.7 |
| 20260505063047 | 5 | 235 | 0.0 | 1.6 | 0.00 | 0.00 | 0.00 | 68 | 1006.7 |
| 20260505062848 | 5 | 235 | 0.0 | 1.6 | 0.00 | 0.00 | 0.00 | 68 | 1006.8 |
| 20260505062646 | 5 | 235 | 0.0 | 1.6 | 0.00 | 0.00 | 0.00 | 68 | 1006.7 |
| 20260505062546 | 5 | 235 | 0.0 | 1.6 | 0.00 | 0.00 | 0.00 | 68 | 1006.8 |
| 20260505062453 | 5 | 235 | 0.0 | 1.6 | 0.00 | 0.00 | 0.00 | 68 | 1006.8 |
| 20260505062246 | 5 | 235 | 0.0 | 1.6 | 0.00 | 0.00 | 0.00 | 68 | 1006.7 |
| 20260505062047 | 5 | 235 | 0.0 | 1.6 | 0.00 | 0.00 | 0.00 | 67 | 1006.8 |
| 20260505061848 | 5 | 235 | 0.0 | 1.6 | 0.00 | 0.00 | 0.00 | 68 | 1006.7 |
| 20260505061648 | 5 | 235 | 0.0 | 1.6 | 0.00 | 0.00 | 0.00 | 68 | 1006.8 |
| 20260505061549 | 5 | 235 | 0.0 | 1.6 | 0.00 | 0.00 | 0.00 | 67 | 1006.8 |
| 20260505061545 | 5 | 235 | 0.0 | 1.6 | 0.00 | 0.00 | 0.00 | 67 | 1006.7 |
| 20260505061246 | 5 | 235 | 0.0 | 1.6 | 0.00 | 0.00 | 0.00 | 67 | 1006.8 |
| 20260505061046 | 5 | 235 | 0.0 | 1.6 | 0.00 | 0.00 | 0.00 | 66 | 1006.8 |
| 20260505060846 | 5 | 235 | 0.0 | 1.6 | 0.00 | 0.00 | 0.00 | 66 | 1006.8 |
| 20260505060646 | 5 | 235 | 0.0 | 1.6 | 0.00 | 0.00 | 0.00 | 65 | 1006.8 |
| 20260505060541 | 5 | 235 | 0.0 | 1.6 | 0.00 | 0.00 | 0.00 | 65 | 1006.8 |
| 20260505060446 | 5 | 235 | 0.0 | 1.6 | 0.00 | 0.00 | 0.00 | 65 | 1006.8 |
| 20260505060331 | 5 | 235 | 0.0 | 1.6 | 0.00 | 0.00 | 0.00 | 65 | 1006.9 |
| 20260505060321 | 5 | 235 | 0.0 | 1.6 | 0.00 | 0.00 | 0.00 | 65 | 1006.9 |
| 20260505060255 | 5 | 235 | 0.0 | 1.6 | 0.00 | 0.00 | 0.00 | 65 | 1006.9 |
| 20260505055956 | 5 | 235 | 0.0 | 1.6 | 0.00 | 0.00 | 0.00 | 66 | 1006.9 |
| 20260505055645 | 5 | 235 | 0.0 | 3.2 | 0.00 | 0.00 | 0.00 | 66 | 1006.9 |
| 20260505055540 | 5 | 235 | 0.0 | 3.2 | 0.00 | 0.00 | 0.00 | 65 | 1006.8 |
| 20260505055446 | 5 | 235 | 0.0 | 3.2 | 0.00 | 0.00 | 0.00 | 65 | 1006.8 |
| 20260505055333 | 5 | 235 | 0.0 | 3.2 | 0.00 | 0.00 | 0.00 | 66 | 1006.8 |
| 20260505055324 | 5 | 235 | 0.0 | 3.2 | 0.00 | 0.00 | 0.00 | 65 | 1006.8 |
| 20260505055257 | 5 | 235 | 0.0 | 3.2 | 0.00 | 0.00 | 0.00 | 66 | 1006.8 |
| 20260505054846 | 5 | 235 | 0.0 | 3.2 | 0.00 | 0.00 | 0.00 | 65 | 1006.7 |
| 20260505054646 | 5 | 235 | 0.0 | 3.2 | 0.00 | 0.00 | 0.00 | 65 | 1006.7 |
| 20260505054537 | 5 | 235 | 0.0 | 3.2 | 0.00 | 0.00 | 0.00 | 65 | 1006.7 |
| 20260505054446 | 5 | 235 | 0.0 | 6.4 | 0.00 | 0.00 | 0.00 | 64 | 1006.7 |
| 20260505054418 | 5 | 235 | 0.0 | 6.4 | 0.00 | 0.00 | 0.00 | 65 | 1006.7 |
| 20260505054255 | 5 | 235 | 0.0 | 6.4 | 0.00 | 0.00 | 0.00 | 65 | 1006.7 |
| 20260505053847 | 5 | 235 | 0.0 | 6.4 | 0.00 | 0.00 | 0.00 | 64 | 1006.7 |
| 20260505053647 | 5 | 235 | 0.0 | 6.4 | 0.00 | 0.00 | 0.00 | 64 | 1006.7 |
| 20260505053534 | 5 | 235 | 0.0 | 4.8 | 0.00 | 0.00 | 0.00 | 63 | 1006.8 |
| 20260505053447 | 5 | 235 | 0.0 | 4.8 | 0.00 | 0.00 | 0.00 | 63 | 1006.8 |
| 20260505053322 | 5 | 235 | 0.0 | 4.8 | 0.00 | 0.00 | 0.00 | 63 | 1006.7 |
| 20260505053313 | 5 | 235 | 0.0 | 4.8 | 0.00 | 0.00 | 0.00 | 63 | 1006.8 |
| 20260505053250 | 5 | 235 | 0.0 | 4.8 | 0.00 | 0.00 | 0.00 | 63 | 1006.7 |
| 20260505052850 | 6 | 235 | 0.0 | 4.8 | 0.00 | 0.00 | 0.00 | 63 | 1006.7 |
| 20260505052737 | 6 | 231 | 0.0 | 1.6 | 0.00 | 0.00 | 0.00 | 63 | 1006.7 |
| 20260505052532 | 6 | 231 | 0.0 | 1.6 | 0.00 | 0.00 | 0.00 | 63 | 1006.6 |
| 20260505052435 | 6 | 231 | 0.0 | 1.6 | 0.00 | 0.00 | 0.00 | 63 | 1006.7 |
| 20260505052234 | 6 | 230 | 0.0 | 3.2 | 0.00 | 0.00 | 0.00 | 64 | 1006.6 |
| 20260505052008 | 6 | 230 | 0.0 | 3.2 | 0.00 | 0.00 | 0.00 | 64 | 1006.6 |
| 20260505051811 | 6 | 230 | 0.0 | 8.0 | 0.00 | 0.00 | 0.00 | 64 | 1006.6 |
| 20260505051608 | 6 | 230 | 0.0 | 8.0 | 0.00 | 0.00 | 0.00 | 64 | 1006.5 |
| 20260505051530 | 6 | 230 | 0.0 | 8.0 | 0.00 | 0.00 | 0.00 | 64 | 1006.5 |
| 20260505051405 | 6 | 230 | 0.0 | 8.0 | 0.00 | 0.00 | 0.00 | 64 | 1006.6 |
| 20260505051204 | 6 | 230 | 0.0 | 8.0 | 0.00 | 0.00 | 0.00 | 63 | 1006.6 |
| 20260505051004 | 5 | 230 | 0.0 | 8.0 | 0.00 | 0.00 | 0.00 | 63 | 1006.5 |
| 20260505050909 | 5 | 243 | 0.0 | 1.6 | 0.00 | 0.00 | 0.00 | 63 | 1006.6 |
| 20260505050747 | 5 | 243 | 0.0 | 3.2 | 0.00 | 0.00 | 0.00 | 63 | 1006.5 |
| 20260505050333 | 5 | 243 | 0.0 | 3.2 | 0.00 | 0.00 | 0.00 | 63 | 1006.5 |
| 20260505050133 | 5 | 243 | 0.0 | 3.2 | 0.00 | 0.00 | 0.00 | 63 | 1006.5 |
| 20260505041558 | 5 | 241 | 0.0 | 1.6 | 0.00 | 0.00 | 0.00 | 63 | 1006.4 |
| 20260505041425 | 5 | 241 | 0.0 | 1.6 | 0.00 | 0.00 | 0.00 | 62 | 1006.3 |
| 20260505041358 | 5 | 241 | 0.0 | 1.6 | 0.00 | 0.00 | 0.00 | 62 | 1006.3 |
| 20260505041258 | 5 | 241 | 0.0 | 1.6 | 0.00 | 0.00 | 0.00 | 63 | 1006.3 |
| 20260505040954 | 5 | 241 | 0.0 | 1.6 | 0.00 | 0.00 | 0.00 | 63 | 1006.4 |
| 20260505040922 | 5 | 241 | 0.0 | 1.6 | 0.00 | 0.00 | 0.00 | 63 | 1006.4 |
| 20260505040756 | 5 | 241 | 0.0 | 1.6 | 0.00 | 0.00 | 0.00 | 63 | 1006.4 |
| 20260505040540 | 5 | 241 | 0.0 | 1.6 | 0.00 | 0.00 | 0.00 | 64 | 1006.4 |
| 20260505040422 | 5 | 241 | 0.0 | 1.6 | 0.00 | 0.00 | 0.00 | 63 | 1006.4 |
| 20260505040342 | 5 | 241 | 0.0 | 1.6 | 0.00 | 0.00 | 0.00 | 64 | 1006.4 |
| 20260505040140 | 6 | 241 | 0.0 | 1.6 | 0.00 | 0.00 | 0.00 | 64 | 1006.3 |
| 20260505035934 | 6 | 241 | 0.0 | 1.6 | 0.00 | 0.00 | 0.00 | 64 | 1006.4 |
| 20260505035921 | 6 | 241 | 0.0 | 1.6 | 0.00 | 0.00 | 0.00 | 63 | 1006.4 |
| 20260505035745 | 6 | 241 | 0.0 | 1.6 | 0.00 | 0.00 | 0.00 | 63 | 1006.3 |
| 20260505035732 | 6 | 241 | 0.0 | 1.6 | 0.00 | 0.00 | 0.00 | 64 | 1006.3 |
| 20260505035710 | 6 | 241 | 0.0 | 1.6 | 0.00 | 0.00 | 0.00 | 63 | 1006.3 |
| 20260505035331 | 6 | 241 | 0.0 | 1.6 | 0.00 | 0.00 | 0.00 | 63 | 1006.3 |
| 20260505035234 | 6 | 241 | 0.0 | 1.6 | 0.00 | 0.00 | 0.00 | 64 | 1006.4 |
| 20260505034931 | 6 | 241 | 0.0 | 1.6 | 0.00 | 0.00 | 0.00 | 64 | 1006.4 |
| 20260505034918 | 6 | 241 | 0.0 | 1.6 | 0.00 | 0.00 | 0.00 | 64 | 1006.3 |
| 20260505034732 | 6 | 241 | 0.0 | 1.6 | 0.00 | 0.00 | 0.00 | 64 | 1006.3 |
| 20260505034532 | 6 | 241 | 0.0 | 1.6 | 0.00 | 0.00 | 0.00 | 64 | 1006.3 |
| 20260505034416 | 6 | 241 | 0.0 | 1.6 | 0.00 | 0.00 | 0.00 | 64 | 1006.3 |
| 20260505034318 | 6 | 241 | 0.0 | 1.6 | 0.00 | 0.00 | 0.00 | 64 | 1006.3 |
| 20260505034121 | 6 | 241 | 0.0 | 1.6 | 0.00 | 0.00 | 0.00 | 64 | 1006.3 |
| 20260505033915 | 6 | 241 | 0.0 | 1.6 | 0.00 | 0.00 | 0.00 | 63 | 1006.2 |
| 20260505033718 | 6 | 241 | 0.0 | 1.6 | 0.00 | 0.00 | 0.00 | 62 | 1006.2 |
| 20260505033618 | 6 | 241 | 0.0 | 1.6 | 0.00 | 0.00 | 0.00 | 62 | 1006.2 |
| 20260505033406 | 6 | 241 | 0.0 | 0.0 | 0.00 | 0.00 | 0.00 | 62 | 1006.3 |
| 20260505033320 | 6 | 241 | 0.0 | 0.0 | 0.00 | 0.00 | 0.00 | 62 | 1006.3 |
| 20260505033125 | 6 | 241 | 0.0 | 0.0 | 0.00 | 0.00 | 0.00 | 61 | 1006.3 |
| 20260505032909 | 6 | 241 | 0.0 | 0.0 | 0.00 | 0.00 | 0.00 | 61 | 1006.3 |
| 20260505032707 | 6 | 241 | 0.0 | 0.0 | 0.00 | 0.00 | 0.00 | 61 | 1006.3 |
| 20260505032507 | 6 | 241 | 0.0 | 0.0 | 0.00 | 0.00 | 0.00 | 60 | 1006.3 |
| 20260505032407 | 6 | 241 | 0.0 | 0.0 | 0.00 | 0.00 | 0.00 | 61 | 1006.3 |
| 20260505032306 | 6 | 241 | 0.0 | 0.0 | 0.00 | 0.00 | 0.00 | 61 | 1006.2 |
| 20260505032111 | -17 | 241 | 0.0 | 1.6 | 0.00 | 0.00 | 0.00 | 1006.2 | |
| 20260505032009 | 7 | 241 | 0.0 | 1.6 | 0.00 | 0.00 | 0.00 | 58 | 1006.3 |
| 20260505031908 | 7 | 241 | 0.0 | 1.6 | 0.00 | 0.00 | 0.00 | 58 | 1006.3 |
| 20260505031703 | 7 | 241 | 0.0 | 1.6 | 0.00 | 0.00 | 0.00 | 58 | 1006.3 |
| 20260505031643 | 7 | 241 | 0.0 | 1.6 | 0.00 | 0.00 | 0.00 | 58 | 1006.3 |
| 20260505031625 | 7 | 241 | 0.0 | 1.6 | 0.00 | 0.00 | 0.00 | 58 | 1006.2 |
| 20260505031302 | 7 | 241 | 0.0 | 1.6 | 0.00 | 0.00 | 0.00 | 58 | 1006.2 |
| 20260505031057 | 7 | 241 | 0.0 | 1.6 | 0.00 | 0.00 | 0.00 | 58 | 1006.3 |
| 20260505030906 | 7 | 241 | 0.0 | 1.6 | 0.00 | 0.00 | 0.00 | 58 | 1006.3 |
| 20260505030902 | 7 | 241 | 0.0 | 1.6 | 0.00 | 0.00 | 0.00 | 58 | 1006.3 |
| 20260505030701 | 7 | 241 | 0.0 | 1.6 | 0.00 | 0.00 | 0.00 | 58 | 1006.3 |
| 20260505030649 | 7 | 241 | 0.0 | 1.6 | 0.00 | 0.00 | 0.00 | 56 | 1006.2 |
| 20260505030625 | 7 | 241 | 0.0 | 1.6 | 0.00 | 0.00 | 0.00 | 56 | 1006.3 |
| 20260505030232 | 7 | 241 | 0.0 | 1.6 | 0.00 | 0.00 | 0.00 | 57 | 1006.2 |
| 20260505030032 | 7 | 241 | 0.0 | 1.6 | 0.00 | 0.00 | 0.00 | 56 | 1006.3 |
| 20260505025932 | 7 | 241 | 0.0 | 1.6 | 0.00 | 0.00 | 0.00 | 54 | 1006.3 |
| 20260505025903 | 7 | 241 | 0.0 | 1.6 | 0.00 | 0.00 | 0.00 | 54 | 1006.2 |
| 20260505025654 | 7 | 241 | 0.0 | 1.6 | 0.00 | 0.00 | 0.00 | 54 | 1006.2 |
| 20260505025644 | 7 | 241 | 0.0 | 1.6 | 0.00 | 0.00 | 0.00 | 54 | 1006.2 |
| 20260505025616 | 7 | 241 | 0.0 | 1.6 | 0.00 | 0.00 | 0.00 | 54 | 1006.2 |
| 20260505025202 | 7 | 241 | 0.0 | 1.6 | 0.00 | 0.00 | 0.00 | 54 | 1006.2 |
| 20260505025006 | 7 | 241 | 0.0 | 1.6 | 0.00 | 0.00 | 0.00 | 54 | 1006.1 |
| 20260505024900 | 7 | 241 | 0.0 | 1.6 | 0.00 | 0.00 | 0.00 | 54 | 1006.1 |
| 20260505024800 | 7 | 241 | 0.0 | 1.6 | 0.00 | 0.00 | 0.00 | 54 | 1006.0 |
| 20260505024649 | 8 | 241 | 0.0 | 3.2 | 0.00 | 0.00 | 0.00 | 54 | 1006.2 |
| 20260505024642 | 8 | 241 | 0.0 | 1.6 | 0.00 | 0.00 | 0.00 | 54 | 1006.1 |
| 20260505024616 | 8 | 241 | 0.0 | 3.2 | 0.00 | 0.00 | 0.00 | 54 | 1006.2 |
| 20260505024250 | 8 | 241 | 0.0 | 6.4 | 0.00 | 0.00 | 0.00 | 54 | 1006.1 |
| 20260505023952 | 8 | 241 | 0.0 | 6.4 | 0.00 | 0.00 | 0.00 | 54 | 1006.1 |
| 20260505023832 | 8 | 241 | 0.0 | 6.4 | 0.00 | 0.00 | 0.00 | 54 | 1006.0 |
| 20260505023749 | 8 | 241 | 0.0 | 6.4 | 0.00 | 0.00 | 0.00 | 54 | 1006.0 |
| 20260505023547 | 8 | 241 | 0.0 | 6.4 | 0.00 | 0.00 | 0.00 | 54 | 1006.0 |
| 20260505023349 | 8 | 240 | 0.0 | 6.4 | 0.00 | 0.00 | 0.00 | 53 | 1006.0 |
| 20260505023302 | 8 | 240 | 0.0 | 6.4 | 0.00 | 0.00 | 0.00 | 53 | 1006.0 |
| 20260505023250 | 8 | 245 | 0.0 | 3.2 | 0.00 | 0.00 | 0.00 | 53 | 1005.9 |
| 20260505022949 | 8 | 245 | 0.0 | 4.8 | 0.00 | 0.00 | 0.00 | 52 | 1005.9 |
| 20260505022805 | 8 | 245 | 0.0 | 4.8 | 0.00 | 0.00 | 0.00 | 52 | 1005.9 |
| 20260505022748 | 8 | 245 | 0.0 | 4.8 | 0.00 | 0.00 | 0.00 | 52 | 1005.9 |
| 20260505022544 | 8 | 245 | 0.0 | 4.8 | 0.00 | 0.00 | 0.00 | 52 | 1005.9 |
| 20260505022337 | 8 | 245 | 0.0 | 4.8 | 0.00 | 0.00 | 0.00 | 52 | 1005.9 |
| 20260505022305 | 8 | 245 | 0.0 | 4.8 | 0.00 | 0.00 | 0.00 | 52 | 1005.9 |
| 20260505022129 | 8 | 245 | 0.0 | 4.8 | 0.00 | 0.00 | 0.00 | 51 | 1005.9 |
| 20260505021935 | 8 | 244 | 0.0 | 4.8 | 0.00 | 0.00 | 0.00 | 52 | 1005.8 |
| 20260505021804 | 8 | 235 | 0.0 | 3.2 | 0.00 | 0.00 | 0.00 | 51 | 1005.8 |
| 20260505021734 | 8 | 235 | 0.0 | 3.2 | 0.00 | 0.00 | 0.00 | 51 | 1005.8 |
| 20260505021635 | 8 | 235 | 0.0 | 6.4 | 0.00 | 0.00 | 0.00 | 51 | 1005.8 |
| 20260505021307 | 8 | 235 | 0.0 | 6.4 | 0.00 | 0.00 | 0.00 | 51 | 1005.8 |
| 20260505021131 | 8 | 235 | 0.0 | 6.4 | 0.00 | 0.00 | 0.00 | 51 | 1005.8 |
| 20260505020930 | 8 | 235 | 0.0 | 6.4 | 0.00 | 0.00 | 0.00 | 52 | 1005.7 |
| 20260505020731 | 8 | 235 | 0.0 | 6.4 | 0.00 | 0.00 | 0.00 | 50 | 1005.6 |
| 20260505020524 | 8 | 214 | 0.0 | 6.4 | 0.00 | 0.00 | 0.00 | 51 | 1005.6 |
| 20260505020324 | 8 | 213 | 0.0 | 6.4 | 0.00 | 0.00 | 0.00 | 51 | 1005.6 |
| 20260505020231 | 8 | 213 | 0.0 | 6.4 | 0.00 | 0.00 | 0.00 | 51 | 1005.6 |
| 20260505020121 | 8 | 238 | 0.0 | 6.4 | 0.00 | 0.00 | 0.00 | 50 | 1005.6 |
| 20260505020026 | 8 | 238 | 0.0 | 6.4 | 0.00 | 0.00 | 0.00 | 51 | 1005.6 |
| 20260505015723 | 8 | 238 | 0.0 | 6.4 | 0.00 | 0.00 | 0.00 | 50 | 1005.6 |
| 20260505015516 | 8 | 237 | 0.0 | 6.4 | 0.00 | 0.00 | 0.00 | 50 | 1005.6 |
| 20260505015312 | 8 | 238 | 0.0 | 6.4 | 0.00 | 0.00 | 0.00 | 50 | 1005.5 |
| 20260505015231 | 8 | 220 | 0.0 | 6.4 | 0.00 | 0.00 | 0.00 | 50 | 1005.5 |
| 20260505015112 | 8 | 290 | 0.0 | 6.4 | 0.00 | 0.00 | 0.00 | 50 | 1005.5 |
| 20260505014920 | 8 | 255 | 0.0 | 14.5 | 0.00 | 0.00 | 0.00 | 50 | 1005.5 |
| 20260505014707 | 8 | 255 | 0.0 | 14.5 | 0.00 | 0.00 | 0.00 | 50 | 1005.5 |
| 20260505014434 | 8 | 155 | 0.0 | 14.5 | 0.00 | 0.00 | 0.00 | 49 | 1005.5 |
| 20260505014339 | 8 | 227 | 0.0 | 14.5 | 0.00 | 0.00 | 0.00 | 49 | 1005.5 |
| 20260505014236 | 8 | 227 | 0.0 | 14.5 | 0.00 | 0.00 | 0.00 | 49 | 1005.5 |
| 20260505014034 | 9 | 289 | 0.0 | 14.5 | 0.00 | 0.00 | 0.00 | 49 | 1005.4 |
| 20260505013844 | 9 | 212 | 0.0 | 14.5 | 0.00 | 0.00 | 0.00 | 48 | 1005.4 |
| 20260505013734 | 9 | 212 | 0.0 | 14.5 | 0.00 | 0.00 | 0.00 | 48 | 1005.4 |
| 20260505013635 | 9 | 212 | 0.0 | 14.5 | 0.00 | 0.00 | 0.00 | 48 | 1005.5 |
| 20260505013432 | 9 | 247 | 0.0 | 14.5 | 0.00 | 0.00 | 0.00 | 48 | 1005.4 |
| 20260505013236 | 9 | 250 | 0.0 | 9.7 | 0.00 | 0.00 | 0.00 | 51 | 1005.3 |
| 20260505013008 | 9 | 250 | 0.0 | 9.7 | 0.00 | 0.00 | 0.00 | 51 | 1005.3 |
| 20260505012735 | 9 | 245 | 0.0 | 9.7 | 0.00 | 0.00 | 0.00 | 49 | 1005.3 |
| 20260505012729 | 9 | 245 | 0.0 | 9.7 | 0.00 | 0.00 | 0.00 | 51 | 1005.3 |
| 20260505012645 | 9 | 197 | 0.0 | 6.4 | 0.00 | 0.00 | 0.00 | 52 | 1005.2 |
| 20260505012336 | 9 | 219 | 0.0 | 9.7 | 0.00 | 0.00 | 0.00 | 51 | 1005.2 |
| 20260505012233 | 9 | 219 | 0.0 | 9.7 | 0.00 | 0.00 | 0.00 | 52 | 1005.2 |
| 20260505012133 | 9 | 3 | 0.0 | 9.7 | 0.00 | 0.00 | 0.00 | 52 | 1005.1 |
| 20260505011942 | 10 | 62 | 0.0 | 17.7 | 0.00 | 0.00 | 0.00 | 51 | 1005.2 |
| 20260505011734 | 10 | 62 | 0.0 | 17.7 | 0.00 | 0.00 | 0.00 | 51 | 1005.0 |
| 20260505011709 | 10 | 221 | 0.0 | 17.7 | 0.00 | 0.00 | 0.00 | 51 | 1005.0 |
| 20260505011441 | 10 | 161 | 0.0 | 17.7 | 0.00 | 0.00 | 0.00 | 51 | 1005.0 |
| 20260505011229 | 10 | 258 | 0.0 | 17.7 | 0.00 | 0.00 | 0.00 | 51 | 1005.0 |
| 20260505011039 | 10 | 264 | 0.0 | 17.7 | 0.00 | 0.00 | 0.00 | 51 | 1004.9 |
| 20260505010835 | 10 | 264 | 0.0 | 17.7 | 0.00 | 0.00 | 0.00 | 50 | 1004.9 |
| 20260505010734 | 10 | 224 | 0.0 | 17.7 | 0.00 | 0.00 | 0.00 | 50 | 1004.9 |
| 20260505010635 | 10 | 223 | 0.0 | 17.7 | 0.00 | 0.00 | 0.00 | 50 | 1004.8 |
| 20260505010436 | 10 | 223 | 0.0 | 17.7 | 0.00 | 0.00 | 0.00 | 50 | 1004.7 |
| 20260505010233 | 10 | 293 | 0.0 | 17.7 | 0.00 | 0.00 | 0.00 | 49 | 1004.7 |
| 20260505010136 | 10 | 250 | 0.0 | 17.7 | 0.00 | 0.00 | 0.00 | 49 | 1004.7 |
| 20260505010014 | 10 | 257 | 0.0 | 19.3 | 0.00 | 0.00 | 0.00 | 50 | 1004.6 |
| 20260505005956 | 10 | 257 | 0.0 | 19.3 | 0.00 | 0.00 | 0.00 | 50 | 1004.7 |
| 20260505005635 | 10 | 257 | 0.0 | 19.3 | 0.00 | 0.00 | 0.00 | 50 | 1004.6 |
| 20260505005434 | 10 | 235 | 0.0 | 19.3 | 0.00 | 0.00 | 0.00 | 50 | 1004.5 |
| 20260505005230 | 10 | 252 | 0.0 | 19.3 | 0.00 | 0.00 | 0.00 | 49 | 1004.5 |
| 20260505005031 | 10 | 259 | 0.0 | 19.3 | 0.00 | 0.00 | 0.00 | 49 | 1004.5 |
| 20260505005015 | 10 | 224 | 0.0 | 17.7 | 0.00 | 0.00 | 0.00 | 50 | 1004.4 |
| 20260505004950 | 10 | 238 | 0.0 | 9.7 | 0.00 | 0.00 | 0.00 | 50 | 1004.4 |
| 20260505004631 | 10 | 248 | 0.0 | 17.7 | 0.00 | 0.00 | 0.00 | 51 | 1004.3 |
| 20260505004536 | 10 | 79 | 0.0 | 17.7 | 0.00 | 0.00 | 0.00 | 50 | 1004.3 |
| 20260505004234 | 10 | 79 | 0.0 | 17.7 | 0.00 | 0.00 | 0.00 | 50 | 1004.3 |
| 20260505004038 | 10 | 247 | 0.0 | 17.7 | 0.00 | 0.00 | 0.00 | 48 | 1004.3 |
| 20260505003958 | 10 | 235 | 0.0 | 17.7 | 0.00 | 0.00 | 0.00 | 48 | 1004.2 |
| 20260505003944 | 10 | 250 | 0.0 | 17.7 | 0.00 | 0.00 | 0.00 | 48 | 1004.3 |
| 20260505003633 | 10 | 257 | 0.0 | 6.4 | 0.00 | 0.00 | 0.00 | 48 | 1004.2 |
| 20260505003435 | 11 | 251 | 0.0 | 17.7 | 0.00 | 0.00 | 0.00 | 48 | 1004.2 |
| 20260505003220 | 11 | 251 | 0.0 | 17.7 | 0.00 | 0.00 | 0.00 | 48 | 1004.0 |
| 20260505003022 | 11 | 251 | 0.0 | 17.7 | 0.00 | 0.00 | 0.00 | 48 | 1004.0 |
| 20260505002822 | 11 | 251 | 0.0 | 17.7 | 0.00 | 0.00 | 0.00 | 48 | 1004.0 |
| 20260505002720 | 11 | 251 | 0.0 | 17.7 | 0.00 | 0.00 | 0.00 | 48 | 1003.9 |
| 20260505002619 | 11 | 233 | 0.0 | 17.7 | 0.00 | 0.00 | 0.00 | 48 | 1003.9 |
| 20260505002523 | 11 | 154 | 0.0 | 9.7 | 0.00 | 0.00 | 0.00 | 47 | 1003.8 |
| 20260505002218 | 11 | 266 | 0.0 | 19.3 | 0.00 | 0.00 | 0.00 | 50 | 1003.9 |
| 20260505002034 | 11 | 240 | 0.0 | 19.3 | 0.00 | 0.00 | 0.00 | 50 | 1003.8 |
| 20260505001822 | 11 | 240 | 0.0 | 19.3 | 0.00 | 0.00 | 0.00 | 50 | 1003.9 |
| 20260505001720 | 11 | 240 | 0.0 | 19.3 | 0.00 | 0.00 | 0.00 | 50 | 1003.9 |
| 20260505001623 | 11 | 240 | 0.0 | 19.3 | 0.00 | 0.00 | 0.00 | 50 | 1003.9 |
| 20260505001418 | 11 | 254 | 0.0 | 19.3 | 0.00 | 0.00 | 0.00 | 49 | 1003.8 |
| 20260505001218 | 11 | 217 | 0.0 | 9.7 | 0.00 | 0.00 | 0.00 | 49 | 1003.7 |
| 20260505001029 | 11 | 252 | 0.0 | 14.5 | 0.00 | 0.00 | 0.00 | 49 | 1003.7 |
| 20260505000923 | 11 | 289 | 0.0 | 14.5 | 0.00 | 0.00 | 0.00 | 49 | 1003.7 |
| 20260505000717 | 11 | 203 | 0.0 | 14.5 | 0.00 | 0.00 | 0.00 | 49 | 1003.7 |
| 20260505000605 | 11 | 353 | 0.0 | 24.1 | 0.00 | 0.00 | 0.00 | 47 | 1003.7 |
| 20260505000405 | 11 | 228 | 0.0 | 24.1 | 0.00 | 0.00 | 0.00 | 49 | 1003.7 |
| 20260505000219 | 11 | 268 | 0.0 | 24.1 | 0.00 | 0.00 | 0.00 | 49 | 1003.7 |
| 20260505000204 | 11 | 217 | 0.0 | 24.1 | 0.00 | 0.00 | 0.00 | 49 | 1003.7 |
| 20260505000005 | 11 | 228 | 0.0 | 24.1 | 0.00 | 0.00 | 0.00 | 48 | 1003.8 |
| 20260504235806 | 11 | 228 | 0.0 | 24.1 | 0.00 | 0.00 | 0.00 | 48 | 1003.7 |
| 20260504235719 | 11 | 228 | 0.0 | 24.1 | 0.00 | 0.00 | 0.00 | 48 | 1003.7 |
| 20260504235553 | 11 | 252 | 0.0 | 20.9 | 0.00 | 0.00 | 0.00 | 47 | 1003.6 |
| 20260504235354 | 11 | 255 | 0.0 | 20.9 | 0.00 | 0.00 | 0.00 | 47 | 1003.7 |
| 20260504235209 | 11 | 257 | 0.0 | 19.3 | 0.00 | 0.00 | 0.00 | 47 | 1003.7 |
| 20260504235152 | 11 | 0 | 0.0 | 17.7 | 0.00 | 0.00 | 0.00 | 47 | 1003.7 |
| 20260504235005 | 11 | 259 | 0.0 | 17.7 | 0.00 | 0.00 | 0.00 | 48 | 1003.6 |
| 20260504234957 | 11 | 231 | 0.0 | 17.7 | 0.00 | 0.00 | 0.00 | 47 | 1003.7 |
| 20260504234925 | 11 | 257 | 0.0 | 17.7 | 0.00 | 0.00 | 0.00 | 46 | 1003.7 |
| 20260504234545 | 11 | 252 | 0.0 | 16.1 | 0.00 | 0.00 | 0.00 | 48 | 1003.6 |
| 20260504234441 | -17 | 0.0 | 0.0 | 0.00 | 0.00 | 0.00 | 1003.5 | ||
| 20260504234202 | 12 | 192 | 0.0 | 11.3 | 0.00 | 0.00 | 0.00 | 47 | 1003.7 |
| 20260504234132 | 12 | 192 | 0.0 | 11.3 | 0.00 | 0.00 | 0.00 | 47 | 1003.7 |
| 20260504233932 | 12 | 192 | 0.0 | 16.1 | 0.00 | 0.00 | 0.00 | 47 | 1003.6 |
| 20260504233704 | 12 | 192 | 0.0 | 16.1 | 0.00 | 0.00 | 0.00 | 47 | 1003.5 |
| 20260504233506 | 12 | 192 | 0.0 | 16.1 | 0.00 | 0.00 | 0.00 | 47 | 1003.6 |
| 20260504233306 | 12 | 255 | 0.0 | 16.1 | 0.00 | 0.00 | 0.00 | 46 | 1003.6 |
| 20260504233204 | 12 | 254 | 0.0 | 16.1 | 0.00 | 0.00 | 0.00 | 47 | 1003.4 |
| 20260504233107 | 12 | 234 | 0.0 | 16.1 | 0.00 | 0.00 | 0.00 | 46 | 1003.5 |
| 20260504232905 | 12 | 257 | 0.0 | 11.3 | 0.00 | 0.00 | 0.00 | 46 | 1003.4 |
| 20260504232813 | 12 | 118 | 0.0 | 11.3 | 0.00 | 0.00 | 0.00 | 47 | 1003.3 |
| 20260504232705 | 12 | 118 | 0.0 | 11.3 | 0.00 | 0.00 | 0.00 | 47 | 1003.3 |
| 20260504232505 | 12 | 118 | 0.0 | 11.3 | 0.00 | 0.00 | 0.00 | 47 | 1003.4 |
| 20260504232252 | 12 | 118 | 0.0 | 17.7 | 0.00 | 0.00 | 0.00 | 47 | 1003.3 |
| 20260504232149 | 12 | 118 | 0.0 | 17.7 | 0.00 | 0.00 | 0.00 | 47 | 1003.3 |
| 20260504232052 | 12 | 118 | 0.0 | 17.7 | 0.00 | 0.00 | 0.00 | 47 | 1003.4 |
| 20260504231851 | 12 | 118 | 0.0 | 17.7 | 0.00 | 0.00 | 0.00 | 47 | 1003.3 |
| 20260504231649 | 12 | 243 | 0.0 | 17.7 | 0.00 | 0.00 | 0.00 | 46 | 1003.3 |
| 20260504231449 | 12 | 237 | 0.0 | 17.7 | 0.00 | 0.00 | 0.00 | 46 | 1003.2 |
| 20260504231251 | 12 | 226 | 0.0 | 20.9 | 0.00 | 0.00 | 0.00 | 47 | 1003.2 |
| 20260504231148 | 12 | 178 | 0.0 | 20.9 | 0.00 | 0.00 | 0.00 | 51 | 1003.2 |
| 20260504231051 | 12 | 157 | 0.0 | 20.9 | 0.00 | 0.00 | 0.00 | 48 | 1003.2 |
| 20260504230850 | 12 | 257 | 0.0 | 20.9 | 0.00 | 0.00 | 0.00 | 48 | 1003.2 |
| 20260504230649 | 12 | 238 | 0.0 | 20.9 | 0.00 | 0.00 | 0.00 | 47 | 1003.2 |
| 20260504230451 | 12 | 241 | 0.0 | 20.9 | 0.00 | 0.00 | 0.00 | 46 | 1003.1 |
| 20260504230251 | 12 | 259 | 0.0 | 22.5 | 0.00 | 0.00 | 0.00 | 46 | 1003.2 |
| 20260504230149 | 12 | 265 | 0.0 | 22.5 | 0.00 | 0.00 | 0.00 | 47 | 1003.1 |
| 20260504230104 | 12 | 240 | 0.0 | 22.5 | 0.00 | 0.00 | 0.00 | 47 | 1003.0 |
| 20260504225947 | 12 | 248 | 0.0 | 22.5 | 0.00 | 0.00 | 0.00 | 46 | 1003.0 |
| 20260504225649 | 12 | 228 | 0.0 | 22.5 | 0.00 | 0.00 | 0.00 | 45 | 1003.0 |
| 20260504225451 | 13 | 237 | 0.0 | 22.5 | 0.00 | 0.00 | 0.00 | 45 | 1002.9 |
| 20260504225254 | 13 | 272 | 0.0 | 19.3 | 0.00 | 0.00 | 0.00 | 45 | 1003.1 |
| 20260504225149 | 13 | 228 | 0.0 | 19.3 | 0.00 | 0.00 | 0.00 | 45 | 1003.1 |
| 20260504225051 | 13 | 274 | 0.0 | 22.5 | 0.00 | 0.00 | 0.00 | 45 | 1003.0 |
| 20260504224850 | 13 | 230 | 0.0 | 22.5 | 0.00 | 0.00 | 0.00 | 45 | 1002.9 |
| 20260504224649 | 13 | 220 | 0.0 | 22.5 | 0.00 | 0.00 | 0.00 | 45 | 1002.9 |
| 20260504224450 | 13 | 282 | 0.0 | 22.5 | 0.00 | 0.00 | 0.00 | 46 | 1002.9 |
| 20260504224350 | 13 | 340 | 0.0 | 22.5 | 0.00 | 0.00 | 0.00 | 45 | 1002.6 |
| 20260504224147 | 13 | 228 | 0.0 | 22.5 | 0.00 | 0.00 | 0.00 | 44 | 1002.8 |
| 20260504224051 | 13 | 310 | 0.0 | 14.5 | 0.00 | 0.00 | 0.00 | 45 | 1002.8 |
| 20260504223850 | 13 | 168 | 0.0 | 17.7 | 0.00 | 0.00 | 0.00 | 46 | 1002.7 |
| 20260504223650 | 13 | 266 | 0.0 | 17.7 | 0.00 | 0.00 | 0.00 | 46 | 1002.7 |
| 20260504223451 | 13 | 266 | 0.0 | 17.7 | 0.00 | 0.00 | 0.00 | 46 | 1002.7 |
| 20260504223247 | 13 | 206 | 0.0 | 17.7 | 0.00 | 0.00 | 0.00 | 46 | 1002.7 |
| 20260504223145 | 13 | 251 | 0.0 | 17.7 | 0.00 | 0.00 | 0.00 | 46 | 1002.7 |
| 20260504223049 | 13 | 250 | 0.0 | 17.7 | 0.00 | 0.00 | 0.00 | 45 | 1002.6 |
| 20260504222945 | 13 | 282 | 0.0 | 14.5 | 0.00 | 0.00 | 0.00 | 45 | 1002.7 |
| 20260504222648 | 14 | 262 | 0.0 | 14.5 | 0.00 | 0.00 | 0.00 | 45 | 1002.6 |
| 20260504222433 | 14 | 262 | 0.0 | 14.5 | 0.00 | 0.00 | 0.00 | 45 | 1002.5 |
| 20260504222232 | 14 | 262 | 0.0 | 14.5 | 0.00 | 0.00 | 0.00 | 45 | 1002.3 |
| 20260504222131 | 14 | 262 | 0.0 | 14.5 | 0.00 | 0.00 | 0.00 | 45 | 1002.3 |
| 20260504222032 | 14 | 262 | 0.0 | 14.5 | 0.00 | 0.00 | 0.00 | 45 | 1002.3 |
| 20260504221805 | 14 | 269 | 0.0 | 9.7 | 0.00 | 0.00 | 0.00 | 45 | 1002.3 |
| 20260504221631 | 14 | 285 | 0.0 | 9.7 | 0.00 | 0.00 | 0.00 | 46 | 1002.2 |
| 20260504221605 | 14 | 204 | 0.0 | 4.8 | 0.00 | 0.00 | 0.00 | 46 | 1002.3 |
| 20260504221407 | -17 | 0.0 | 0.0 | 0.00 | 0.00 | 0.00 | 1002.3 | ||
| 20260504221307 | -17 | 0.0 | 0.0 | 0.00 | 0.00 | 0.00 | 1002.1 | ||
| 20260504221134 | -17 | 0.0 | 0.0 | 0.00 | 0.00 | 0.00 | 1002.1 | ||
| 20260504220950 | -17 | 0.0 | 0.0 | 0.00 | 0.00 | 0.00 | 1002.0 | ||
| 20260504220737 | -17 | 0.0 | 0.0 | 0.00 | 0.00 | 0.00 | 1002.0 | ||
| 20260504220638 | -17 | 0.0 | 0.0 | 0.00 | 0.00 | 0.00 | 1002.1 | ||
| 20260504220535 | -17 | 0.0 | 0.0 | 0.00 | 0.00 | 0.00 | 1002.1 | ||
| 20260504220331 | 15 | 214 | 0.0 | 14.5 | 0.00 | 0.00 | 0.00 | 45 | 1002.0 |
| 20260504220106 | 15 | 214 | 0.0 | 19.3 | 0.00 | 0.00 | 0.00 | 45 | 1001.9 |
| 20260504215903 | 15 | 214 | 0.0 | 19.3 | 0.00 | 0.00 | 0.00 | 45 | 1002.0 |
| 20260504215703 | 15 | 214 | 0.0 | 19.3 | 0.00 | 0.00 | 0.00 | 45 | 1001.8 |
| 20260504215618 | 15 | 214 | 0.0 | 19.3 | 0.00 | 0.00 | 0.00 | 45 | 1001.8 |
| 20260504215537 | 15 | 323 | 0.0 | 19.3 | 0.00 | 0.00 | 0.00 | 45 | 1001.8 |
| 20260504215231 | 15 | 237 | 0.0 | 14.5 | 0.00 | 0.00 | 0.00 | 45 | 1001.9 |
| 20260504215102 | 15 | 217 | 0.0 | 14.5 | 0.00 | 0.00 | 0.00 | 45 | 1001.8 |
| 20260504215031 | 15 | 289 | 0.0 | 14.5 | 0.00 | 0.00 | 0.00 | 46 | 1001.8 |
| 20260504214830 | 14 | 0 | 0.0 | 9.7 | 0.00 | 0.00 | 0.00 | 45 | 1001.8 |
| 20260504214631 | 15 | 254 | 0.0 | 9.7 | 0.00 | 0.00 | 0.00 | 45 | 1001.8 |
| 20260504214606 | 15 | 254 | 0.0 | 9.7 | 0.00 | 0.00 | 0.00 | 45 | 1001.7 |
| 20260504214431 | 15 | 254 | 0.0 | 17.7 | 0.00 | 0.00 | 0.00 | 45 | 1001.7 |
| 20260504214230 | 15 | 254 | 0.0 | 17.7 | 0.00 | 0.00 | 0.00 | 45 | 1001.7 |
| 20260504214106 | 15 | 254 | 0.0 | 17.7 | 0.00 | 0.00 | 0.00 | 45 | 1001.7 |
| 20260504214035 | 15 | 254 | 0.0 | 17.7 | 0.00 | 0.00 | 0.00 | 45 | 1001.6 |
| 20260504213807 | 15 | 210 | 0.0 | 17.7 | 0.00 | 0.00 | 0.00 | 46 | 1001.5 |
| 20260504213606 | 15 | 261 | 0.0 | 17.7 | 0.00 | 0.00 | 0.00 | 45 | 1001.4 |
| 20260504213509 | 15 | 250 | 0.0 | 16.1 | 0.00 | 0.00 | 0.00 | 48 | 1001.4 |
| 20260504213207 | 15 | 223 | 0.0 | 16.1 | 0.00 | 0.00 | 0.00 | 45 | 1001.5 |
| 20260504213108 | 15 | 223 | 0.0 | 16.1 | 0.00 | 0.00 | 0.00 | 45 | 1001.5 |
| 20260504213006 | 15 | 227 | 0.0 | 16.1 | 0.00 | 0.00 | 0.00 | 45 | 1001.4 |
| 20260504212806 | 15 | 227 | 0.0 | 9.7 | 0.00 | 0.00 | 0.00 | 43 | 1001.4 |
| 20260504212605 | 15 | 186 | 0.0 | 9.7 | 0.00 | 0.00 | 0.00 | 43 | 1001.4 |
| 20260504212406 | 15 | 271 | 0.0 | 9.7 | 0.00 | 0.00 | 0.00 | 46 | 1001.3 |
| 20260504212208 | 16 | 234 | 0.0 | 4.8 | 0.00 | 0.00 | 0.00 | 44 | 1001.4 |
| 20260504212108 | 16 | 234 | 0.0 | 11.3 | 0.00 | 0.00 | 0.00 | 44 | 1001.4 |
| 20260504212012 | 16 | 234 | 0.0 | 11.3 | 0.00 | 0.00 | 0.00 | 44 | 1001.4 |
| 20260504211847 | 16 | 234 | 0.0 | 24.1 | 0.00 | 0.00 | 0.00 | 44 | 1001.4 |
| 20260504211603 | 16 | 234 | 0.0 | 24.1 | 0.00 | 0.00 | 0.00 | 44 | 1001.3 |
| 20260504211549 | 16 | 234 | 0.0 | 24.1 | 0.00 | 0.00 | 0.00 | 44 | 1001.3 |
| 20260504211349 | 16 | 234 | 0.0 | 24.1 | 0.00 | 0.00 | 0.00 | 44 | 1001.3 |
| 20260504211134 | 16 | 200 | 0.0 | 24.1 | 0.00 | 0.00 | 0.00 | 44 | 1001.4 |
| 20260504211056 | 16 | 252 | 0.0 | 24.1 | 0.00 | 0.00 | 0.00 | 43 | 1001.4 |
| 20260504210939 | 16 | 285 | 0.0 | 24.1 | 0.00 | 0.00 | 0.00 | 45 | 1001.4 |
| 20260504210845 | 16 | 303 | 0.0 | 20.9 | 0.00 | 0.00 | 0.00 | 44 | 1001.1 |
| 20260504210831 | 16 | 188 | 0.0 | 20.9 | 0.00 | 0.00 | 0.00 | 45 | 1001.2 |
| 20260504210534 | 16 | 282 | 0.0 | 20.9 | 0.00 | 0.00 | 0.00 | 44 | 1001.0 |
| 20260504210411 | 16 | 238 | 0.0 | 20.9 | 0.00 | 0.00 | 0.00 | 46 | 1001.3 |
| 20260504210337 | 16 | 238 | 0.0 | 20.9 | 0.00 | 0.00 | 0.00 | 44 | 1001.3 |
| 20260504210333 | 16 | 238 | 0.0 | 20.9 | 0.00 | 0.00 | 0.00 | 46 | 1001.2 |
| 20260504205928 | 16 | 250 | 0.0 | 20.9 | 0.00 | 0.00 | 0.00 | 43 | 1001.2 |
| 20260504205731 | 16 | 274 | 0.0 | 16.1 | 0.00 | 0.00 | 0.00 | 43 | 1001.1 |
| 20260504205549 | 16 | 274 | 0.0 | 16.1 | 0.00 | 0.00 | 0.00 | 43 | 1001.1 |
| 20260504205503 | 16 | 274 | 0.0 | 16.1 | 0.00 | 0.00 | 0.00 | 43 | 1001.2 |
| 20260504205339 | 16 | 241 | 0.0 | 22.5 | 0.00 | 0.00 | 0.00 | 43 | 1001.3 |
| 20260504205327 | 16 | 299 | 0.0 | 22.5 | 0.00 | 0.00 | 0.00 | 41 | 1001.2 |
| 20260504205250 | 16 | 250 | 0.0 | 22.5 | 0.00 | 0.00 | 0.00 | 43 | 1001.2 |
| 20260504204850 | 16 | 254 | 0.0 | 22.5 | 0.00 | 0.00 | 0.00 | 45 | 1001.3 |
| 20260504204650 | 16 | 265 | 0.0 | 22.5 | 0.00 | 0.00 | 0.00 | 43 | 1001.2 |
| 20260504204548 | 16 | 241 | 0.0 | 22.5 | 0.00 | 0.00 | 0.00 | 43 | 1001.2 |
| 20260504204532 | 16 | 279 | 0.0 | 22.5 | 0.00 | 0.00 | 0.00 | 42 | 1001.2 |
| 20260504204329 | 15 | 231 | 0.0 | 3.2 | 0.00 | 0.00 | 0.00 | 46 | 1001.1 |
| 20260504204320 | 16 | 248 | 0.0 | 16.1 | 0.00 | 0.00 | 0.00 | 43 | 1001.2 |
| 20260504204247 | 15 | 231 | 0.0 | 3.2 | 0.00 | 0.00 | 0.00 | 46 | 1001.1 |
| 20260504203855 | 15 | 231 | 0.0 | 3.2 | 0.00 | 0.00 | 0.00 | 46 | 1001.0 |
| 20260504203651 | 15 | 233 | 0.0 | 1.6 | 0.00 | 0.00 | 0.00 | 46 | 1001.0 |
| 20260504203531 | 16 | 233 | 0.0 | 16.1 | 0.00 | 0.00 | 0.00 | 46 | 1001.1 |
| 20260504203452 | 16 | 233 | 0.0 | 16.1 | 0.00 | 0.00 | 0.00 | 46 | 1001.1 |
| 20260504203253 | 16 | 233 | 0.0 | 17.7 | 0.00 | 0.00 | 0.00 | 46 | 1001.1 |
| 20260504203039 | 16 | 233 | 0.0 | 22.5 | 0.00 | 0.00 | 0.00 | 46 | 1001.0 |
| 20260504203034 | 16 | 233 | 0.0 | 22.5 | 0.00 | 0.00 | 0.00 | 46 | 1001.1 |
| 20260504202833 | 16 | 233 | 0.0 | 24.1 | 0.00 | 0.00 | 0.00 | 46 | 1001.1 |
| 20260504202634 | 16 | 233 | 0.0 | 24.1 | 0.00 | 0.00 | 0.00 | 46 | 1001.0 |
| 20260504202525 | 16 | 243 | 0.0 | 24.1 | 0.00 | 0.00 | 0.00 | 46 | 1001.0 |
| 20260504202432 | 15 | 135 | 0.0 | 24.1 | 0.00 | 0.00 | 0.00 | 46 | 1001.1 |
| 20260504202340 | 16 | 247 | 0.0 | 24.1 | 0.00 | 0.00 | 0.00 | 42 | 1001.1 |
| 20260504202319 | 16 | 230 | 0.0 | 24.1 | 0.00 | 0.00 | 0.00 | 42 | 1001.1 |
| 20260504202301 | 15 | 248 | 0.0 | 24.1 | 0.00 | 0.00 | 0.00 | 43 | 1001.0 |
| 20260504201834 | -17 | 197 | 0.0 | 4.8 | 0.00 | 0.00 | 0.00 | 1001.0 | |
| 20260504201632 | -17 | 197 | 0.0 | 4.8 | 0.00 | 0.00 | 0.00 | 1001.0 | |
| 20260504201526 | -17 | 197 | 0.0 | 4.8 | 0.00 | 0.00 | 0.00 | 1000.9 | |
| 20260504201424 | 16 | 197 | 0.0 | 14.5 | 0.00 | 0.00 | 0.00 | 43 | 1001.0 |
| 20260504201306 | 16 | 235 | 0.0 | 17.7 | 0.00 | 0.00 | 0.00 | 43 | 1000.9 |
| 20260504201250 | 16 | 197 | 0.0 | 17.7 | 0.00 | 0.00 | 0.00 | 43 | 1000.9 |
| 20260504201006 | 16 | 235 | 0.0 | 17.7 | 0.00 | 0.00 | 0.00 | 43 | 1000.9 |
| 20260504200807 | 16 | 235 | 0.0 | 17.7 | 0.00 | 0.00 | 0.00 | 43 | 1001.0 |
| 20260504200519 | 16 | 235 | 0.0 | 17.7 | 0.00 | 0.00 | 0.00 | 43 | 1000.8 |
| 20260504200425 | 16 | 283 | 0.0 | 16.1 | 0.00 | 0.00 | 0.00 | 44 | 1000.9 |
| 20260504200313 | 16 | 240 | 0.0 | 20.9 | 0.00 | 0.00 | 0.00 | 45 | 1000.8 |
| 20260504200244 | 16 | 217 | 0.0 | 20.9 | 0.00 | 0.00 | 0.00 | 43 | 1000.8 |
| 20260504195923 | 16 | 323 | 0.0 | 20.9 | 0.00 | 0.00 | 0.00 | 45 | 1000.8 |
| 20260504195727 | 16 | 323 | 0.0 | 20.9 | 0.00 | 0.00 | 0.00 | 45 | 1000.4 |
| 20260504195524 | 16 | 281 | 0.0 | 20.9 | 0.00 | 0.00 | 0.00 | 47 | 1000.7 |
| 20260504195315 | 16 | 228 | 0.0 | 19.3 | 0.00 | 0.00 | 0.00 | 44 | 1000.9 |
| 20260504195110 | 16 | 261 | 0.0 | 19.3 | 0.00 | 0.00 | 0.00 | 44 | 1000.8 |
| 20260504195020 | 16 | 257 | 0.0 | 17.7 | 0.00 | 0.00 | 0.00 | 48 | 1000.8 |
| 20260504194903 | 16 | 154 | 0.0 | 17.7 | 0.00 | 0.00 | 0.00 | 48 | 1000.8 |
| 20260504194807 | 16 | 110 | 0.0 | 22.5 | 0.00 | 0.00 | 0.00 | 45 | 1000.8 |
| 20260504194506 | 16 | 265 | 0.0 | 22.5 | 0.00 | 0.00 | 0.00 | 48 | 1000.8 |
| 20260504194310 | 15 | 254 | 0.0 | 22.5 | 0.00 | 0.00 | 0.00 | 48 | 1000.7 |
| 20260504194305 | 16 | 248 | 0.0 | 22.5 | 0.00 | 0.00 | 0.00 | 48 | 1000.7 |
| 20260504194232 | 16 | 278 | 0.0 | 22.5 | 0.00 | 0.00 | 0.00 | 47 | 1000.7 |
| 20260504193901 | 15 | 237 | 0.0 | 22.5 | 0.00 | 0.00 | 0.00 | 45 | 1000.7 |
| 20260504193701 | 16 | 271 | 0.0 | 11.3 | 0.00 | 0.00 | 0.00 | 43 | 1000.6 |
| 20260504193502 | 16 | 259 | 0.0 | 20.9 | 0.00 | 0.00 | 0.00 | 45 | 1000.6 |
| 20260504193349 | 16 | 172 | 0.0 | 20.9 | 0.00 | 0.00 | 0.00 | 45 | 1000.3 |
| 20260504193256 | 16 | 97 | 0.0 | 22.5 | 0.00 | 0.00 | 0.00 | 46 | 1000.4 |
| 20260504193223 | 16 | 327 | 0.0 | 20.9 | 0.00 | 0.00 | 0.00 | 46 | 1000.6 |
| 20260504192835 | 16 | 85 | 0.0 | 22.5 | 0.00 | 0.00 | 0.00 | 48 | 1000.4 |
| 20260504192637 | 16 | 219 | 0.0 | 22.5 | 0.00 | 0.00 | 0.00 | 49 | 1000.4 |
| 20260504192501 | 16 | 231 | 0.0 | 29.0 | 0.00 | 0.00 | 0.00 | 47 | 1000.6 |
| 20260504192431 | 16 | 216 | 0.0 | 29.0 | 0.00 | 0.00 | 0.00 | 47 | 1000.6 |
| 20260504192304 | 16 | 237 | 0.0 | 29.0 | 0.00 | 0.00 | 0.00 | 44 | 1000.3 |
| 20260504192255 | 16 | 138 | 0.0 | 29.0 | 0.00 | 0.00 | 0.00 | 44 | 1000.4 |
| 20260504192222 | 16 | 243 | 0.0 | 29.0 | 0.00 | 0.00 | 0.00 | 44 | 1000.4 |
| 20260504191822 | 16 | 237 | 0.0 | 29.0 | 0.00 | 0.00 | 0.00 | 44 | 1000.3 |
| 20260504191716 | 16 | 244 | 0.0 | 29.0 | 0.00 | 0.00 | 0.00 | 45 | 1000.2 |
| 20260504191506 | 16 | 250 | 0.0 | 19.3 | 0.00 | 0.00 | 0.00 | 45 | 1000.2 |
| 20260504191420 | 16 | 250 | 0.0 | 19.3 | 0.00 | 0.00 | 0.00 | 45 | 1000.2 |
| 20260504191213 | 16 | 230 | 0.0 | 19.3 | 0.00 | 0.00 | 0.00 | 45 | 1000.2 |
| 20260504191011 | 16 | 233 | 0.0 | 19.3 | 0.00 | 0.00 | 0.00 | 46 | 1000.2 |
| 20260504190938 | 16 | 276 | 0.0 | 19.3 | 0.00 | 0.00 | 0.00 | 45 | 1000.2 |
| 20260504190808 | 16 | 274 | 0.0 | 16.1 | 0.00 | 0.00 | 0.00 | 45 | 1000.2 |
| 20260504190607 | 16 | 252 | 0.0 | 29.0 | 0.00 | 0.00 | 0.00 | 48 | 1000.2 |
| 20260504190506 | 16 | 247 | 0.0 | 29.0 | 0.00 | 0.00 | 0.00 | 46 | 1000.2 |
| 20260504190431 | 16 | 247 | 0.0 | 29.0 | 0.00 | 0.00 | 0.00 | 45 | 1000.2 |
| 20260504190229 | 15 | 261 | 0.0 | 29.0 | 0.00 | 0.00 | 0.00 | 46 | 1000.3 |
| 20260504190222 | 15 | 250 | 0.0 | 29.0 | 0.00 | 0.00 | 0.00 | 47 | 1000.3 |
| 20260504190149 | 15 | 282 | 0.0 | 29.0 | 0.00 | 0.00 | 0.00 | 45 | 1000.3 |
| 20260504185807 | 15 | 279 | 0.0 | 29.0 | 0.00 | 0.00 | 0.00 | 45 | 1000.4 |
| 20260504185609 | 15 | 258 | 0.0 | 27.4 | 0.00 | 0.00 | 0.00 | 43 | 1000.3 |
| 20260504185423 | 15 | 251 | 0.0 | 22.5 | 0.00 | 0.00 | 0.00 | 45 | 1000.4 |
| 20260504185406 | 15 | 264 | 0.0 | 22.5 | 0.00 | 0.00 | 0.00 | 45 | 1000.3 |
| 20260504185220 | 15 | 221 | 0.0 | 24.1 | 0.00 | 0.00 | 0.00 | 42 | 1000.2 |
| 20260504185215 | 15 | 196 | 0.0 | 22.5 | 0.00 | 0.00 | 0.00 | 45 | 1000.2 |
| 20260504185147 | 15 | 221 | 0.0 | 14.5 | 0.00 | 0.00 | 0.00 | 42 | 1000.2 |
| 20260504184858 | 15 | 221 | 0.0 | 24.1 | 0.00 | 0.00 | 0.00 | 42 | 1000.3 |
| 20260504184531 | 15 | 221 | 0.0 | 24.1 | 0.00 | 0.00 | 0.00 | 42 | 1000.1 |
| 20260504184408 | 15 | 221 | 0.0 | 24.1 | 0.00 | 0.00 | 0.00 | 42 | 1000.1 |
| 20260504184331 | 15 | 221 | 0.0 | 24.1 | 0.00 | 0.00 | 0.00 | 42 | 1000.1 |
| 20260504184210 | 15 | 254 | 0.0 | 29.0 | 0.00 | 0.00 | 0.00 | 44 | 1000.2 |
| 20260504184156 | 15 | 217 | 0.0 | 29.0 | 0.00 | 0.00 | 0.00 | 42 | 1000.0 |
| 20260504184124 | 15 | 254 | 0.0 | 29.0 | 0.00 | 0.00 | 0.00 | 44 | 1000.2 |
| 20260504183709 | 15 | 261 | 0.0 | 29.0 | 0.00 | 0.00 | 0.00 | 41 | 1000.1 |
| 20260504183509 | 15 | 259 | 0.0 | 29.0 | 0.00 | 0.00 | 0.00 | 42 | 1000.0 |
| 20260504183409 | 15 | 278 | 0.0 | 29.0 | 0.00 | 0.00 | 0.00 | 41 | 1000.0 |
| 20260504183310 | 15 | 258 | 0.0 | 20.9 | 0.00 | 0.00 | 0.00 | 41 | 1000.1 |
| 20260504183209 | 16 | 262 | 0.0 | 22.5 | 0.00 | 0.00 | 0.00 | 44 | 1000.0 |
| 20260504182910 | 16 | 271 | 0.0 | 22.5 | 0.00 | 0.00 | 0.00 | 40 | 1000.0 |
| 20260504182710 | 16 | 313 | 0.0 | 22.5 | 0.00 | 0.00 | 0.00 | 40 | 999.8 |
| 20260504182511 | 16 | 313 | 0.0 | 25.7 | 0.00 | 0.00 | 0.00 | 40 | 999.9 |
| 20260504182420 | 16 | 233 | 0.0 | 25.7 | 0.00 | 0.00 | 0.00 | 42 | 999.9 |
| 20260504182411 | 16 | 261 | 0.0 | 25.7 | 0.00 | 0.00 | 0.00 | 41 | 999.8 |
| 20260504182110 | 17 | 243 | 0.0 | 25.7 | 0.00 | 0.00 | 0.00 | 42 | 999.8 |
| 20260504181909 | 17 | 244 | 0.0 | 25.7 | 0.00 | 0.00 | 0.00 | 46 | 999.7 |
| 20260504181709 | 17 | 252 | 0.0 | 25.7 | 0.00 | 0.00 | 0.00 | 39 | 999.7 |
| 20260504181610 | 16 | 116 | 0.0 | 16.1 | 0.00 | 0.00 | 0.00 | 40 | 999.5 |
| 20260504181408 | 16 | 142 | 0.0 | 16.1 | 0.00 | 0.00 | 0.00 | 40 | 999.7 |
| 20260504181309 | 16 | 142 | 0.0 | 16.1 | 0.00 | 0.00 | 0.00 | 40 | 999.7 |
| 20260504181108 | 17 | 245 | 0.0 | 16.1 | 0.00 | 0.00 | 0.00 | 40 | 999.7 |
| 20260504180918 | 17 | 295 | 0.0 | 16.1 | 0.00 | 0.00 | 0.00 | 40 | 999.7 |
| 20260504180904 | 17 | 269 | 0.0 | 16.1 | 0.00 | 0.00 | 0.00 | 40 | 999.6 |
| 20260504180709 | 17 | 243 | 0.0 | 16.1 | 0.00 | 0.00 | 0.00 | 44 | 999.5 |
| 20260504180509 | 17 | 209 | 0.0 | 16.1 | 0.00 | 0.00 | 0.00 | 45 | 999.5 |
| 20260504180402 | 17 | 261 | 0.0 | 16.1 | 0.00 | 0.00 | 0.00 | 43 | 999.4 |
| 20260504180310 | 17 | 179 | 0.0 | 16.1 | 0.00 | 0.00 | 0.00 | 44 | 999.4 |
| 20260504180109 | 17 | 247 | 0.0 | 16.1 | 0.00 | 0.00 | 0.00 | 42 | 999.3 |
| 20260504180017 | 18 | 240 | 0.0 | 14.5 | 0.00 | 0.00 | 0.00 | 46 | 999.1 |
| 20260504175902 | 18 | 240 | 0.0 | 16.1 | 0.00 | 0.00 | 0.00 | 46 | 999.1 |
| 20260504175710 | 17 | 109 | 0.0 | 16.1 | 0.00 | 0.00 | 0.00 | 45 | 999.1 |
| 20260504175510 | 17 | 241 | 0.0 | 16.1 | 0.00 | 0.00 | 0.00 | 43 | 999.3 |
| 20260504175403 | 17 | 217 | 0.0 | 17.7 | 0.00 | 0.00 | 0.00 | 41 | 999.2 |
| 20260504175310 | 18 | 217 | 0.0 | 17.7 | 0.00 | 0.00 | 0.00 | 44 | 999.2 |
| 20260504175109 | 17 | 189 | 0.0 | 17.7 | 0.00 | 0.00 | 0.00 | 46 | 999.1 |
| 20260504174916 | 17 | 261 | 0.0 | 17.7 | 0.00 | 0.00 | 0.00 | 45 | 999.2 |
| 20260504174901 | 17 | 241 | 0.0 | 17.7 | 0.00 | 0.00 | 0.00 | 45 | 999.2 |
| 20260504174716 | 17 | 254 | 0.0 | 17.7 | 0.00 | 0.00 | 0.00 | 43 | 999.2 |
| 20260504174711 | 17 | 259 | 0.0 | 17.7 | 0.00 | 0.00 | 0.00 | 45 | 999.2 |
| 20260504174701 | 17 | 240 | 0.0 | 17.7 | 0.00 | 0.00 | 0.00 | 47 | 999.2 |
| 20260504174639 | 17 | 245 | 0.0 | 17.7 | 0.00 | 0.00 | 0.00 | 47 | 999.1 |
| 20260504174110 | 17 | 272 | 0.0 | 17.7 | 0.00 | 0.00 | 0.00 | 44 | 999.1 |
| 20260504173915 | 17 | 230 | 0.0 | 17.7 | 0.00 | 0.00 | 0.00 | 46 | 999.0 |
| 20260504173903 | 17 | 230 | 0.0 | 17.7 | 0.00 | 0.00 | 0.00 | 46 | 999.1 |
| 20260504173710 | 17 | 230 | 0.0 | 17.7 | 0.00 | 0.00 | 0.00 | 46 | 999.1 |
| 20260504173513 | 17 | 210 | 0.0 | 14.5 | 0.00 | 0.00 | 0.00 | 47 | 999.0 |
| 20260504173352 | 17 | 250 | 0.0 | 14.5 | 0.00 | 0.00 | 0.00 | 46 | 999.0 |
| 20260504173308 | -17 | 219 | 0.0 | 6.4 | 0.00 | 0.00 | 0.00 | 999.0 | |
| 20260504173107 | 17 | 219 | 0.0 | 8.0 | 0.00 | 0.00 | 0.00 | 48 | 999.0 |
| 20260504173011 | 17 | 219 | 0.0 | 11.3 | 0.00 | 0.00 | 0.00 | 48 | 998.9 |
| 20260504172852 | 17 | 219 | 0.0 | 11.3 | 0.00 | 0.00 | 0.00 | 48 | 998.9 |
| 20260504172705 | 17 | 219 | 0.0 | 11.3 | 0.00 | 0.00 | 0.00 | 48 | 999.0 |
| 20260504172505 | 17 | 219 | 0.0 | 11.3 | 0.00 | 0.00 | 0.00 | 48 | 999.0 |
| 20260504172352 | 17 | 219 | 0.0 | 11.3 | 0.00 | 0.00 | 0.00 | 48 | 999.0 |
| 20260504172304 | 17 | 248 | 0.0 | 16.1 | 0.00 | 0.00 | 0.00 | 48 | 999.0 |
| 20260504172107 | 17 | 240 | 0.0 | 20.9 | 0.00 | 0.00 | 0.00 | 47 | 998.9 |
| 20260504171907 | 17 | 281 | 0.0 | 20.9 | 0.00 | 0.00 | 0.00 | 47 | 998.9 |
| 20260504171850 | 17 | 281 | 0.0 | 20.9 | 0.00 | 0.00 | 0.00 | 48 | 998.9 |
| 20260504171707 | 17 | 259 | 0.0 | 24.1 | 0.00 | 0.00 | 0.00 | 48 | 998.9 |
| 20260504171454 | 17 | 230 | 0.0 | 24.1 | 0.00 | 0.00 | 0.00 | 49 | 999.0 |
| 20260504171356 | 17 | 237 | 0.0 | 24.1 | 0.00 | 0.00 | 0.00 | 45 | 999.0 |
| 20260504171352 | 17 | 244 | 0.0 | 24.1 | 0.00 | 0.00 | 0.00 | 46 | 999.0 |
| 20260504171053 | 17 | 258 | 0.0 | 24.1 | 0.00 | 0.00 | 0.00 | 49 | 998.8 |
| 20260504170853 | 17 | 258 | 0.0 | 24.1 | 0.00 | 0.00 | 0.00 | 49 | 999.0 |
| 20260504170654 | 17 | 151 | 0.0 | 11.3 | 0.00 | 0.00 | 0.00 | 50 | 998.8 |
| 20260504170645 | 17 | 243 | 0.0 | 20.9 | 0.00 | 0.00 | 0.00 | 50 | 998.9 |
| 20260504170625 | 17 | 243 | 0.0 | 11.3 | 0.00 | 0.00 | 0.00 | 50 | 998.8 |
| 20260504170257 | 17 | 243 | 0.0 | 27.4 | 0.00 | 0.00 | 0.00 | 50 | 998.9 |
| 20260504160337 | 17 | 238 | 0.0 | 9.7 | 0.00 | 0.00 | 0.00 | 46 | 998.7 |
| 20260504160155 | 17 | 261 | 0.0 | 17.7 | 0.00 | 0.00 | 0.00 | 47 | 998.8 |
| 20260504160120 | 17 | 261 | 0.0 | 22.5 | 0.00 | 0.00 | 0.00 | 47 | 998.7 |
| 20260504150928 | 16 | 240 | 0.0 | 14.5 | 0.00 | 0.00 | 0.00 | 49 | 998.7 |
| 20260504150814 | 16 | 272 | 0.0 | 14.5 | 0.00 | 0.00 | 0.00 | 49 | 998.7 |
| 20260504150712 | 15 | 290 | 0.0 | 16.1 | 0.00 | 0.00 | 0.00 | 50 | 998.7 |
| 20260504150512 | 15 | 290 | 0.0 | 16.1 | 0.00 | 0.00 | 0.00 | 50 | 998.6 |
| 20260504150312 | 15 | 290 | 0.0 | 16.1 | 0.00 | 0.00 | 0.00 | 50 | 998.6 |
| 20260504150119 | 16 | 248 | 0.0 | 16.1 | 0.00 | 0.00 | 0.00 | 49 | 998.7 |
| 20260504141256 | 16 | 247 | 0.0 | 16.1 | 0.00 | 0.00 | 0.00 | 54 | 998.2 |
| 20260504141056 | 16 | 247 | 0.0 | 16.1 | 0.00 | 0.00 | 0.00 | 54 | 998.2 |
| 20260504140847 | 16 | 233 | 0.0 | 16.1 | 0.00 | 0.00 | 0.00 | 54 | 998.1 |
| 20260504140754 | 16 | 262 | 0.0 | 16.1 | 0.00 | 0.00 | 0.00 | 54 | 998.1 |
| 20260504140632 | 16 | 262 | 0.0 | 16.1 | 0.00 | 0.00 | 0.00 | 54 | 998.1 |
| 20260504140432 | 16 | 303 | 0.0 | 11.3 | 0.00 | 0.00 | 0.00 | 54 | 998.0 |
| 20260504140231 | 16 | 219 | 0.0 | 11.3 | 0.00 | 0.00 | 0.00 | 54 | 998.0 |
| 20260504130643 | 15 | 223 | 0.0 | 20.9 | 0.00 | 0.00 | 0.00 | 54 | 997.5 |
| 20260504130445 | 15 | 223 | 0.0 | 20.9 | 0.00 | 0.00 | 0.00 | 54 | 997.4 |
| 20260504130243 | 15 | 252 | 0.0 | 20.9 | 0.00 | 0.00 | 0.00 | 53 | 997.5 |
| 20260504130134 | 15 | 266 | 0.0 | 20.9 | 0.00 | 0.00 | 0.00 | 53 | 997.5 |
| 20260504120144 | 14 | 227 | 0.0 | 20.9 | 0.00 | 0.00 | 0.00 | 53 | 996.8 |
| 20260504110714 | 15 | 179 | 0.0 | 20.9 | 0.00 | 0.00 | 0.00 | 50 | 996.1 |
| 20260504110413 | 14 | 216 | 0.0 | 20.9 | 0.00 | 0.00 | 0.00 | 50 | 996.1 |
| 20260504110217 | 14 | 216 | 0.0 | 20.9 | 0.00 | 0.00 | 0.00 | 50 | 996.1 |
| 20260504100447 | 14 | 206 | 0.0 | 14.5 | 0.00 | 0.00 | 0.00 | 51 | 996.6 |
| 20260504100351 | 14 | 206 | 0.0 | 14.5 | 0.00 | 0.00 | 0.00 | 51 | 996.6 |
| 20260504100347 | 14 | 206 | 0.0 | 14.5 | 0.00 | 0.00 | 0.00 | 51 | 996.6 |
| 20260504081936 | 13 | 206 | 0.0 | 16.1 | 0.00 | 0.00 | 0.00 | 51 | 998.3 |
| 20260504081701 | 13 | 209 | 0.0 | 14.5 | 0.00 | 0.00 | 0.00 | 51 | 998.4 |